HR1LRC-21 Weather Reports


time (UTC)temp
F
wind
direction
speed
knots
gust
knots
rain 1hr
in
rain 24hr
in
rain mn
in
humidity
%
barometer
mb
20260504081824 69 3 3.5 4.3 0.00 0.00 0.00 59 1014.0
20260504080823 69 3 3.5 4.3 0.00 0.00 0.00 59 1014.0
20260504045812 69 3 3.5 4.3 0.00 0.00 0.00 59 1016.0
20260504044811 69 3 3.5 4.3 0.00 0.00 0.00 59 1016.0
20260504043811 75 186 3.5 4.3 0.00 0.00 0.00 44 1016.0
20260504042810 75 186 3.5 4.3 0.00 0.00 0.00 44 1016.0
20260504041810 75 186 3.5 4.3 0.00 0.00 0.00 44 1016.0
20260504040809 75 186 3.5 4.3 0.00 0.00 0.00 44 1015.0
20260504035808 75 186 3.5 4.3 0.00 0.00 0.00 44 1015.0
20260504034808 75 186 3.5 4.3 0.00 0.00 0.00 44 1015.0
20260504033807 75 186 3.5 4.3 0.00 0.00 0.00 44 1016.0
20260504032807 75 186 3.5 4.3 0.00 0.00 0.00 44 1016.0
20260504031806 75 186 3.5 4.3 0.00 0.00 0.00 44 1016.0
20260504030806 75 186 3.5 4.3 0.00 0.00 0.00 44 1015.0
20260504025805 75 186 3.5 4.3 0.00 0.00 0.00 44 1015.0
20260504024804 75 186 3.5 4.3 0.00 0.00 0.00 44 1015.0
20260504023804 75 186 3.5 4.3 0.00 0.00 0.00 44 1015.0
20260504022803 75 186 3.5 4.3 0.00 0.00 0.00 44 1015.0
20260504021803 75 186 3.5 4.3 0.00 0.00 0.00 44 1015.0
20260504020802 75 186 3.5 4.3 0.00 0.00 0.00 44 1014.0
20260504015802 75 186 3.5 4.3 0.00 0.00 0.00 44 1014.0
20260504014801 75 186 3.5 4.3 0.00 0.00 0.00 44 1014.0
20260504013800 75 186 3.5 4.3 0.00 0.00 0.00 44 1013.0
20260504012800 75 186 3.5 4.3 0.00 0.00 0.00 44 1012.0
20260504011759 75 186 3.5 4.3 0.00 0.00 0.00 44 1012.0
20260504010759 75 186 3.5 4.3 0.00 0.00 0.00 44 1012.0
20260504005758 75 186 3.5 4.3 0.00 0.00 0.00 44 1012.0
20260504004757 75 186 3.5 4.3 0.00 0.00 0.00 44 1012.0
20260504003757 75 186 3.5 4.3 0.00 0.00 0.00 44 1011.0
20260504002756 75 186 3.5 4.3 0.00 0.00 0.00 44 1011.0
20260504001756 75 186 3.5 4.3 0.00 0.00 0.00 44 1011.0
20260504000755 75 186 3.5 4.3 0.00 0.00 0.00 44 1010.0
20260503235755 75 186 3.5 5.2 0.00 0.00 0.00 44 1010.0
20260503234754 75 186 3.5 5.2 0.00 0.00 0.00 44 1010.0
20260503233754 82 59 2.6 7.0 0.00 0.00 0.00 28 1010.0
20260503232753 82 59 2.6 7.0 0.00 0.00 0.00 28 1008.0
20260503231752 82 59 2.6 7.0 0.00 0.00 0.00 28 1008.0
20260503230752 82 59 2.6 7.0 0.00 0.00 0.00 28 1008.0
20260503225751 82 59 2.6 7.0 0.01 0.00 0.00 28 1008.0
20260503224751 82 59 2.6 7.0 0.02 0.00 0.00 28 1008.0
20260503223750 82 59 2.6 7.0 0.02 0.00 0.00 28 1008.0
20260503222750 82 59 2.6 7.0 0.02 0.00 0.00 28 1008.0
20260503221749 82 59 2.6 7.0 0.02 0.00 0.00 28 1008.0
20260503220748 82 59 2.6 7.0 0.01 0.00 0.00 28 1008.0
20260503215748 82 59 2.6 7.0 0.00 0.00 0.00 28 1008.0
20260503214747 82 59 2.6 7.0 0.00 0.00 0.00 28 1008.0
20260503213747 82 59 2.6 7.0 0.00 0.00 0.00 28 1008.0
20260503212746 81 41 7.0 7.8 0.00 0.00 0.00 28 1008.0
20260503211746 81 41 7.0 7.8 0.00 0.00 0.00 28 1008.0
20260503210745 82 41 7.0 7.8 0.00 0.00 0.00 28 1008.0
20260503205744 82 41 7.0 7.8 0.00 0.00 0.00 27 1008.0
20260503204744 82 41 7.0 7.8 0.00 0.00 0.00 28 1008.0
20260503203743 82 41 7.0 7.8 0.00 0.00 0.00 28 1008.0
20260503202743 81 55 5.2 7.8 0.00 0.00 0.00 30 1009.0
20260503201742 81 55 5.2 7.8 0.00 0.00 0.00 30 1009.0
20260503200741 81 55 5.2 7.8 0.00 0.00 0.00 29 1009.0
20260503195741 81 55 5.2 7.8 0.00 0.00 0.00 28 1009.0
20260503194740 81 55 5.2 7.8 0.00 0.00 0.00 28 1009.0
20260503193740 81 55 5.2 7.8 0.00 0.00 0.00 29 1009.0
20260503192739 81 69 3.5 7.8 0.00 0.00 0.00 33 1010.0
20260503191739 81 69 3.5 7.8 0.00 0.00 0.00 33 1010.0
20260503190738 81 69 3.5 7.8 0.00 0.00 0.00 33 1010.0
20260503185737 81 69 3.5 7.8 0.00 0.00 0.00 33 1010.0
20260503184737 81 69 3.5 7.8 0.00 0.00 0.00 35 1011.0
20260503183736 81 69 3.5 7.8 0.00 0.00 0.00 35 1011.0
20260503182735 79 60 2.6 8.7 0.00 0.00 0.00 38 1012.0
20260503181736 79 60 2.6 8.7 0.00 0.00 0.00 38 1012.0
20260503180734 79 60 2.6 8.7 0.00 0.00 0.00 38 1012.0
20260503175734 79 60 2.6 8.7 0.00 0.00 0.00 38 1012.0
20260503174733 79 60 2.6 8.7 0.00 0.00 0.00 38 1012.0
20260503173732 78 60 2.6 8.7 0.00 0.00 0.00 41 1013.0
20260503172732 76 65 3.5 7.8 0.00 0.00 0.00 47 1014.0
20260503171731 76 65 3.5 7.8 0.00 0.00 0.00 47 1014.0
20260503170731 76 65 3.5 7.8 0.00 0.00 0.00 48 1014.0
20260503150724 71 73 2.6 4.3 0.00 0.00 0.00 65 1015.0